Flag for Ukraine Weather past 2 weeks in Kyiv, Ukraine

Now
88 °F

Passing clouds.


Feels Like: 86 °F
Forecast: 65 / 85 °F
Wind: 8 mph from Northeast

Location: Kyiv

Current Time: Jul 6, 2015 at 5:07:45 PM

Latest Report: Jul 6, 2015 at 4:30 PM


Visibility: N/A

Pressure: 29.92 "Hg

Humidity: 33%

Dew point: 55 °F

Location of KyivLocation

Historic Weather in Kyiv — Graph

°F

Kyiv temperature yesterday

Maximum temperature yesterday: 88 °F (at 4:00 PM)
Minimum temperature yesterday: 55 °F (at 4:30 AM)
Average temperature yesterday: 74 °F

Past Weeks' High & Low Weather Summary

 TemperatureHumidityPressure
High90 °F (Jul 6, 2:30 PM)100% (Jun 23, 1:30 AM)30.36 "Hg (Jun 23, 1:30 AM)
Low48 °F (Jun 23, 4:00 AM)27% (Jun 30, 1:30 PM)29.71 "Hg (Jun 27, 4:30 AM)
Average68 °F61%30.00 "Hg
* Reported Jun 21 4:00 PM — Jul 6 4:00 PM, Kyiv, Weather by CustomWeather, © 2015

Note: Actual official high and low records may vary slightly from our data, if they occured in-between our weather recording intervals... More about our weather records

Advertising

Kyiv weather history for previous 24 hours

 ConditionsComfort  
Time TempWeatherWind HumidityBarometerVisibility
4:00 PM
Mon, Jul 6
90 °FSunny.6 mph31%29.92 "Hg10 mi
3:30 PM88 °FPassing clouds.10 mph35%29.92 "HgN/A
3:00 PM90 °FPassing clouds.6 mph33%29.92 "HgN/A
2:30 PM90 °FPassing clouds.8 mph33%29.95 "HgN/A
2:00 PM88 °FSunny.3 mph35%29.95 "Hg10 mi
1:30 PM88 °FSunny.3 mph33%29.95 "Hg10 mi
1:00 PM88 °FPassing clouds.10 mph33%29.95 "HgN/A
12:30 PM88 °FPassing clouds.6 mph33%29.95 "HgN/A
12:00 PM88 °FPassing clouds.10 mph35%29.95 "HgN/A
11:30 AM86 °FSunny.6 mph40%29.95 "Hg10 mi
11:00 AM86 °FPassing clouds.6 mph40%29.95 "HgN/A
10:30 AM86 °FPassing clouds.6 mph40%29.95 "HgN/A
10:00 AM84 °FPassing clouds.6 mph43%29.95 "HgN/A
9:30 AM82 °FPassing clouds.6 mph45%29.95 "HgN/A
9:00 AM82 °FPassing clouds.6 mph48%29.95 "HgN/A
8:30 AM79 °FSunny.1 mph54%29.95 "Hg10 mi
8:00 AM75 °FPassing clouds.3 mph61%29.95 "HgN/A
7:30 AM72 °FSunny.3 mph69%29.95 "Hg10 mi
7:00 AM70 °FSunny.3 mph69%29.95 "Hg10 mi
6:00 AM66 °FSunny.6 mph73%29.95 "Hg10 mi
5:30 AM66 °FClear.6 mph73%29.95 "Hg10 mi
5:00 AM66 °FClear.6 mph73%29.95 "Hg10 mi
4:30 AM66 °FClear.3 mph73%29.95 "Hg10 mi
4:00 AM66 °FClear.6 mph73%29.95 "Hg10 mi
3:30 AM63 °FClear.6 mph83%29.95 "Hg10 mi
3:00 AM64 °FClear.3 mph78%29.95 "Hg10 mi
2:30 AM66 °FClear.6 mph73%29.95 "Hg10 mi
2:00 AM66 °FClear.3 mph73%29.95 "Hg10 mi
1:30 AM68 °FClear.3 mph69%29.95 "Hg10 mi
1:00 AM70 °FClear.3 mph64%29.95 "Hg10 mi
12:30 AM72 °FClear.6 mph61%29.95 "Hg10 mi
12:00 AM72 °FClear.6 mph61%29.98 "Hg10 mi
11:30 PM
Sun, Jul 5
72 °FClear.3 mph61%29.98 "Hg10 mi
11:00 PM73 °FClear.6 mph57%29.98 "Hg10 mi
10:30 PM73 °FPassing clouds.6 mph57%29.98 "HgN/A
10:00 PM75 °FSunny.6 mph54%29.98 "Hg10 mi
9:30 PM75 °FPassing clouds.3 mph54%29.98 "HgN/A
9:00 PM79 °FSunny.3 mph48%29.98 "Hg10 mi
8:30 PM81 °FSunny.6 mph45%29.98 "Hg10 mi
8:00 PM82 °FPassing clouds.6 mph42%29.98 "HgN/A
7:30 PM84 °FSunny.8 mph37%29.98 "Hg10 mi
7:00 PM86 °FPassing clouds.6 mph35%29.98 "HgN/A
6:30 PM86 °FSunny.6 mph35%29.98 "Hg10 mi
6:00 PM88 °FPassing clouds.6 mph31%29.98 "HgN/A
5:30 PM88 °FPassing clouds.3 mph31%29.98 "HgN/A
5:00 PM88 °FPassing clouds.3 mph31%29.98 "HgN/A
Weather by CustomWeather, © 2015

See weather overviewHow to use our weather pages